Weather History for Burgas, Bulgaria

Change the Weather History Date:

Tuesday, April 15, 2014

  Actual Average Record
Temperature  
Mean Temperature 55 °F -  
Max Temperature 69 °F 58 °F 74 °F (2012)
Min Temperature 41 °F 41 °F 35 °F (1997)
Degree Days  
Heating Degree Days 10    
Growing Degree Days 5 (Base 50)    
Moisture  
Dew Point 46 °F    
Average Humidity 74    
Maximum Humidity 94    
Minimum Humidity 46    
Precipitation  
Precipitation 0.00 in - - ()
Sea Level Pressure  
Sea Level Pressure 29.84 in    
Wind  
Wind Speed 5 mph ()    
Max Wind Speed 13 mph    
Max Gust Speed -    
Visibility 6.6 miles    
Events Fog    
Averages and records for this station are not official NWS values.
T = Trace of Precipitation, MM = Missing Value Source: Averaged Metar Reports

Daily Weather History Graph

Daily Weather History Graph

Search for Another Location

Airport:

Trip Planner

Search our weather history database for the weather conditions in past years. The results will help you decide how hot, cold, wet, or windy it might be!

Date:

Astronomy

Apr. 15, 2014 Rise Set
Actual Time 6:29 AM EEST 7:51 PM EEST
Civil Twilight 5:59 AM EEST 8:20 PM EEST
Nautical Twilight 5:24 AM EEST 8:56 PM EEST
Astronomical Twilight 4:47 AM EEST 9:33 PM EEST
Moon 8:12 PM EEST (4/15) 6:25 AM EEST (4/15)
Length of Visible Light 14h 20m
Length of Day
13h 22m
Full, 100% of the Moon is Illuminated
Apr 15
Full
Apr 22
Last Quarter
Apr 29
New
May 7
First Quarter
May 14
Full

Hourly Weather History & Observations

Time (EEST) Temp. Windchill Dew Point Humidity Pressure Visibility Wind Dir Wind Speed Gust Speed Precip Events Conditions
12:00 AM 49 °F - 46 °F 86% 29.92 in 12 mi West 4.5 mph - -  
12:00 AM 46.4 °F 41.2 °F 42.8 °F 87% 29.92 in - NE 11.2 mph - N/A   Clear
12:30 AM 46.4 °F 42.0 °F 42.8 °F 87% 29.92 in - ENE 8.9 mph - N/A   Clear
1:00 AM 46.4 °F 42.0 °F 42.8 °F 87% 29.89 in - ENE 8.9 mph - N/A   Clear
1:30 AM 46.4 °F - 42.8 °F 87% 29.89 in - Variable 2.2 mph - N/A   Clear
2:00 AM 44.6 °F - 42.8 °F 93% 29.89 in - NE 2.2 mph - N/A   Clear
2:30 AM 44.6 °F - 41.0 °F 87% 29.89 in - Variable 2.2 mph - N/A   Clear
3:00 AM 48 °F - 45 °F 86% 29.90 in 12 mi WNW 4.5 mph - -  
3:00 AM 44.6 °F 42.3 °F 41.0 °F 87% 29.86 in - NW 4.5 mph - N/A   Clear
3:30 AM 44.6 °F - 41.0 °F 87% 29.86 in - Calm Calm - N/A   Clear
4:00 AM 42.8 °F - 41.0 °F 93% 29.86 in - NW 2.2 mph - N/A   Clear
4:30 AM 41.0 °F - 39.2 °F 93% 29.86 in 5.0 mi NNW 2.2 mph - N/A   Unknown
5:00 AM 42.8 °F - 41.0 °F 93% 29.86 in - North 2.2 mph - N/A   Clear
5:30 AM 41.0 °F - 39.2 °F 93% 29.83 in - NW 2.2 mph - N/A   Clear
6:00 AM 46 °F - 45 °F 94% 29.87 in 11 mi Calm Calm - -   Scattered Clouds
6:00 AM 41.0 °F - 39.2 °F 93% 29.83 in 3.1 mi Variable 2.2 mph - N/A   Mist
6:30 AM 42.8 °F - 41.0 °F 93% 29.83 in 3.1 mi Variable 2.2 mph - N/A   Partly Cloudy
7:00 AM 44.6 °F - 42.8 °F 93% 29.83 in 5.0 mi Calm Calm - N/A Fog Partly Cloudy
7:30 AM 42.8 °F - 41.0 °F 93% 29.83 in 5.6 mi Calm Calm - N/A Fog Partly Cloudy
8:00 AM 44.6 °F - 42.8 °F 93% 29.86 in 5.6 mi NNW 2.2 mph - N/A Fog Partly Cloudy
8:30 AM 46.4 °F - 44.6 °F 93% 29.86 in 4.3 mi NNW 2.2 mph - N/A Fog Partly Cloudy
9:00 AM 50 °F - 48 °F 92% 29.87 in 1 mi Calm Calm - -   Mist
9:00 AM 51.8 °F - 46.4 °F 82% 29.83 in 6.2 mi Calm Calm - N/A   Partly Cloudy
9:30 AM 53.6 °F - 44.6 °F 72% 29.86 in 6.2 mi Variable 4.5 mph - N/A   Partly Cloudy
10:00 AM 55.4 °F - 44.6 °F 67% 29.86 in 6.2 mi Variable 4.5 mph - N/A   Partly Cloudy
10:30 AM 57.2 °F - 44.6 °F 63% 29.86 in 6.2 mi Variable 2.2 mph - N/A   Partly Cloudy
11:00 AM 59.0 °F - 46.4 °F 63% 29.86 in 6.2 mi Variable 4.5 mph - N/A   Partly Cloudy
11:30 AM 60.8 °F - 48.2 °F 63% 29.83 in 6.2 mi Variable 2.2 mph - N/A   Partly Cloudy
12:00 PM 59 °F - 50 °F 64% 29.85 in 11 mi NNW 4.5 mph - -   Partly Cloudy
12:00 PM 64.4 °F - 50.0 °F 59% 29.83 in 6.2 mi Variable 4.5 mph - N/A   Partly Cloudy
12:30 PM 64.4 °F - 48.2 °F 56% 29.83 in 6.2 mi SE 8.9 mph - N/A   Partly Cloudy
1:00 PM 64.4 °F - 46.4 °F 52% 29.83 in 6.2 mi SE 11.2 mph - N/A   Partly Cloudy
1:30 PM 64.4 °F - 46.4 °F 52% 29.83 in 6.2 mi ESE 11.2 mph - N/A   Partly Cloudy
2:00 PM 66.2 °F - 46.4 °F 49% 29.83 in 6.2 mi ESE 11.2 mph - N/A   Partly Cloudy
2:30 PM 66.2 °F - 44.6 °F 46% 29.80 in 6.2 mi SE 11.2 mph - N/A   Scattered Clouds
3:00 PM 61 °F - 51 °F 60% 29.81 in 11 mi NNE 11.2 mph - -   Partly Cloudy
3:00 PM 68.0 °F - 46.4 °F 46% 29.80 in 6.2 mi SE 11.2 mph - N/A   Scattered Clouds
3:30 PM 68.0 °F - 48.2 °F 49% 29.80 in 6.2 mi SE 11.2 mph - N/A   Scattered Clouds
4:00 PM 69.8 °F - 48.2 °F 46% 29.80 in 6.2 mi ESE 8.9 mph - N/A   Scattered Clouds
4:30 PM 68.0 °F - 48.2 °F 49% 29.77 in 6.2 mi ESE 11.2 mph - N/A   Scattered Clouds
5:00 PM 66.2 °F - 46.4 °F 49% 29.77 in 6.2 mi ESE 13.4 mph - N/A   Scattered Clouds
5:30 PM 64.4 °F - 46.4 °F 52% 29.77 in 6.2 mi ESE 11.2 mph - N/A   Scattered Clouds
6:00 PM 59 °F - 51 °F 69% 29.79 in 11 mi NE 4.5 mph - -   Overcast
6:00 PM 64.4 °F - 46.4 °F 52% 29.77 in 6.2 mi SE 8.9 mph - N/A   Scattered Clouds
6:30 PM 62.6 °F - 46.4 °F 55% 29.80 in 6.2 mi SE 8.9 mph - N/A   Scattered Clouds
7:00 PM 60.8 °F - 50.0 °F 68% 29.80 in 6.2 mi NNW 8.9 mph - N/A   Mostly Cloudy
8:00 PM 59.0 °F - 48.2 °F 67% 29.80 in 6.2 mi NNE 6.7 mph - N/A   Mostly Cloudy
8:30 PM 57.2 °F - 48.2 °F 72% 29.80 in 6.2 mi NE 11.2 mph - N/A   Scattered Clouds
9:00 PM 59 °F - 51 °F 68% 29.81 in 11 mi Calm Calm - -   Scattered Clouds
9:00 PM 55.4 °F - 48.2 °F 77% 29.83 in 6.2 mi NE 6.7 mph - N/A   Scattered Clouds
9:30 PM 55.4 °F - 48.2 °F 77% 29.83 in 6.2 mi NE 13.4 mph - N/A   Scattered Clouds
10:00 PM 55.4 °F - 50.0 °F 82% 29.86 in 6.2 mi NE 8.9 mph - N/A   Scattered Clouds
10:30 PM 53.6 °F - 50.0 °F 88% 29.86 in 6.2 mi NE 4.5 mph - N/A   Scattered Clouds
11:00 PM 53.6 °F - 50.0 °F 88% 29.86 in 6.2 mi NE 4.5 mph - N/A   Scattered Clouds
11:30 PM 51.8 °F - 50.0 °F 94% 29.86 in 6.2 mi NNE 6.7 mph - N/A   Scattered Clouds